Probability
0 0 0 0 0 0 0 0 0 0 0 0 0 0 0 0 0 0 0 0 0 0 0 0 0 0 0 0 0 0 0 0 0 0 0 0 0 0 0 0 0 0 1 1
0 0 0 0 0 0 0 0 0 0 0 0 0 0 0 0 0 0 0 0 0 0 0 0 0 0 0 0 0 0 0 0 0 0 0 0 0 0 0 0 0 0 0 1
0 0 0 0 0 0 0 0 0 0 0 0 0 0 0 0 0 0 0 0 0 0 0 0 0 0 0 0 0 0 0 0 0 0 0 0 0 0 0 0 0 0 0 0
0 0 0 0 0 0 0 0 0 0 0 0 0 0 0 0 0 0 0 0 0 0 0 0 0 0 0 0 0 0 0 0 0 0 0 0 0 0 0 0 0 0 0 0
0 0 0 0 0 0 0 0 0 0 0 0 0 0 0 0 0 0 0 0 0 0 0 0 0 0 0 0 0 0 0 0 0 0 0 0 0 0 0 0 0 0 0 0
0 0 0 0 0 0 0 0 0 0 0 0 0 0 0 0 0 0 0 0 0 0 0 0 0 0 0 0 0 0 0 0 0 0 0 0 0 0 0 0 0 0 0 0
0 0 0 0 0 0 0 0 0 0 0 0 0 0 0 0 0 0 0 0 0 0 0 0 0 0 0 0 0 0 0 0 0 0 0 0 0 0 0 0 0 0 0 0
0 0 0 0 0 0 0 0 0 0 0 0 0 0 0 0 0 0 0 0 0 0 0 0 0 0 0 0 0 0 0 0 0 0 0 0 0 0 0 0 0 0 0 0
0 0 0 0 0 0 0 0 0 0 0 0 0 0 0 0 0 0 0 0 0 0 0 0 0 0 0 0 0 0 0 0 0 0 0 0 0 0 0 0 0 0 0 0
0 0 0 0 0 0 0 0 0 0 0 0 0 0 0 0 0 0 0 0 0 0 0 0 0 0 0 0 0 0 0 0 0 0 0 0 0 0 0 0 0 0 0 0
0 0 0 0 0 0 0 0 0 0 0 0 0 0 0 0 0 0 0 0 0 0 0 0 0 0 0 0 0 0 0 0 0 0 0 0 0 0 0 0 0 0 0 0
0 0 0 0 0 0 0 0 0 0 0 0 0 0 0 0 0 0 0 0 0 0 0 0 0 0 0 0 0 0 0 0 0 0 0 0 0 0 0 0 0 0 0 0
0 0 0 0 0 0 0 0 0 0 0 0 0 0 0 0 0 0 0 0 0 0 0 0 0 0 0 0 0 0 0 0 0 0 0 0 0 0 0 0 0 0 0 0
0 0 0 0 0 0 0 0 0 0 0 0 0 0 0 0 0 0 0 0 0 0 0 0 0 0 0 0 0 0 0 0 0 0 0 0 0 0 0 0 0 0 0 0
0 0 0 0 0 0 0 0 0 0 0 0 0 0 0 0 0 0 0 0 0 0 0 0 0 0 0 0 0 0 0 0 0 0 0 0 0 0 0 0 0 0 0 0
0 0 0 0 0 0 0 0 0 0 0 0 0 0 0 0 0 0 0 0 0 0 0 0 0 0 0 0 0 0 0 0 0 0 0 0 0 0 0 0 0 0 0 0
0 0 0 0 0 0 0 0 0 0 0 0 0 0 0 0 0 0 0 0 0 0 0 0 0 0 0 0 0 0 0 0 0 0 0 0 0 0 0 0 0 0 0 0
0 0 0 0 0 0 0 0 0 0 0 0 0 0 0 0 0 0 0 0 0 0 0 0 0 0 0 0 0 0 0 0 0 0 0 0 0 0 0 0 0 0 0 0
0 0 0 0 0 0 0 0 0 0 0 0 0 0 0 0 0 0 0 0 0 0 0 0 0 0 0 0 0 0 0 0 0 0 0 0 0 0 0 0 0 0 0 0
0 0 0 0 0 0 0 0 0 0 0 0 0 0 0 0 0 0 0 0 0 0 0 0 0 0 0 0 0 0 0 0 0 0 0 0 0 0 0 0 0 0 0 0
0 0 0 0 0 0 0 0 0 0 0 0 0 0 0 0 0 0 0 0 0 0 0 0 0 0 0 0 0 0 0 0 0 0 0 0 0 0 0 0 0 0 0 0
0 0 0 0 0 0 0 0 0 0 0 0 0 0 0 0 0 0 0 0 0 0 0 0 0 0 0 0 0 0 0 0 0 0 0 0 0 0 0 0 0 0 0 0
0 0 0 0 0 0 0 0 0 0 0 0 0 0 0 0 0 0 0 0 0 0 0 0 0 0 0 0 0 0 0 0 0 0 0 0 0 0 0 0 0 0 0 0
0 0 0 0 0 0 0 0 0 0 0 0 0 0 0 0 0 0 0 0 0 0 0 0 0 0 0 0 0 0 0 0 0 0 0 0 0 0 0 0 0 0 0 0
0 0 0 0 0 0 0 0 0 0 0 0 0 0 0 0 0 0 0 0 0 0 0 0 0 0 0 0 0 0 0 0 0 0 0 0 0 0 0 0 0 0 0 0
0 0 0 0 0 0 0 0 0 0 0 0 0 0 0 0 0 0 0 0 0 0 0 0 0 0 0 0 0 0 0 0 0 0 0 0 0 0 0 0 0 0 0 0
0 0 0 0 0 0 0 0 0 0 0 0 0 0 0 0 0 0 0 0 0 0 0 0 0 0 0 0 0 0 0 0 0 0 0 0 0 0 0 0 0 0 0 0
Wind_Speed
10 7 7 10 14 17 19 16 13 13 16 15 8 5 3 2 2 2 2 3 3 3 4 4 5 6 6 7 6 5 5 6 7 7 7 7 7 7 8 8 9 10 10 10
8 10 10 10 14 17 18 18 17 15 16 10 6 4 4 4 2 2 3 4 4 5 5 5 6 7 8 8 8 7 7 7 6 6 6 6 7 7 7 8 8 8 9 10
8 8 7 14 15 17 16 16 16 19 16 8 7 6 4 3 1 1 2 4 5 5 5 6 6 7 7 8 8 8 8 7 6 6 6 7 7 6 7 8 7 9 9 10
4 6 15 11 9 13 14 14 13 11 8 7 7 6 2 1 0 2 3 3 5 5 6 6 6 6 7 7 7 7 8 8 7 6 7 7 6 7 7 6 7 8 9 9
5 7 8 5 7 10 13 13 10 10 8 6 4 2 2 1 0 1 2 3 4 5 6 7 7 7 7 8 7 7 8 8 8 7 7 7 7 8 7 6 7 7 6 7
6 7 9 7 5 5 5 9 8 8 7 5 3 5 4 2 3 3 3 3 4 5 6 6 7 7 7 8 8 8 9 9 9 8 8 8 8 8 6 6 7 6 6 6
9 8 7 4 3 5 9 9 3 3 3 3 4 3 1 3 3 4 4 5 5 6 6 7 7 7 8 8 8 9 9 10 9 8 8 8 7 6 5 5 5 5 6 6
7 8 10 4 5 7 4 2 2 2 1 1 1 2 2 3 3 4 5 6 6 6 7 7 7 7 9 9 9 9 9 9 9 8 7 6 6 6 5 5 6 6 6 6
7 7 2 3 4 2 2 3 2 1 2 1 1 2 3 3 4 4 5 6 6 6 8 7 6 6 9 10 10 10 9 9 8 8 7 6 5 6 5 4 4 5 5 6
2 2 2 3 3 3 3 3 2 3 2 1 1 2 4 4 5 5 6 6 6 7 8 8 7 7 8 9 9 9 9 9 8 7 7 5 4 4 4 4 4 4 5 5
3 2 2 1 2 2 3 3 3 3 2 2 2 3 4 4 5 5 5 6 6 6 8 9 8 8 8 8 8 9 9 8 8 7 6 5 5 4 4 4 4 5 5 4
6 4 4 3 2 2 2 1 1 1 2 2 2 3 4 4 4 5 6 6 6 7 8 9 9 9 8 8 8 8 8 8 6 6 5 5 5 5 4 6 6 6 5 4
1 1 1 2 2 1 1 0 1 1 2 3 2 2 3 4 5 5 5 6 6 7 8 8 8 8 8 8 8 8 8 8 6 6 5 5 4 5 5 5 4 5 5 5
2 1 1 1 1 0 1 1 1 1 2 2 2 2 3 4 5 5 6 6 7 7 7 7 7 8 8 8 8 8 8 7 7 6 5 5 5 4 4 4 4 3 2 3
2 2 1 1 1 1 1 1 1 2 2 3 2 2 3 4 5 6 6 6 6 6 6 6 7 9 8 8 8 8 7 6 6 5 5 5 4 4 4 4 3 3 2 1
1 1 1 1 1 1 1 1 2 4 4 4 3 4 4 4 5 6 5 4 4 6 7 7 8 8 8 8 8 7 6 8 7 5 5 5 4 4 3 3 3 2 2 2
1 2 2 2 3 3 3 2 3 4 4 4 4 4 4 4 5 5 5 4 4 5 6 6 8 8 8 7 7 6 6 7 7 5 4 4 4 4 3 3 3 3 2 3
0 1 2 2 3 3 3 3 3 4 4 4 3 3 4 4 5 6 5 5 5 5 5 6 7 7 7 7 6 5 5 5 5 5 4 4 4 4 3 3 3 3 3 3
1 1 2 1 2 2 3 3 3 4 4 3 3 4 4 4 5 5 4 4 5 6 6 6 9 7 7 8 7 5 5 5 5 4 4 4 4 3 3 3 3 3 3 3
1 1 1 1 1 1 2 3 3 3 3 3 3 3 4 5 4 4 4 4 4 4 5 6 6 5 6 7 7 5 5 5 4 4 4 4 4 4 3 3 3 3 3 3
2 1 1 2 2 2 2 2 2 3 3 3 3 4 5 5 4 3 3 4 4 3 4 5 4 4 4 5 6 4 4 4 4 4 3 3 3 3 3 3 3 3 3 3
2 2 2 2 2 2 2 2 2 3 3 3 3 3 3 4 4 3 3 4 4 5 4 3 3 4 6 5 4 4 4 4 3 3 3 3 3 3 3 3 3 3 3 3
2 2 2 2 2 2 2 2 2 2 3 3 3 3 3 4 3 3 4 2 3 5 4 3 5 7 7 4 3 3 3 3 3 3 3 3 3 3 3 3 3 3 3 3
2 2 2 2 1 2 3 3 2 2 3 3 3 3 3 3 3 2 3 4 4 5 4 5 7 7 6 3 3 3 3 3 3 3 3 3 3 3 3 3 3 3 3 3
2 2 2 2 2 3 3 3 2 2 3 3 3 3 2 2 3 3 3 4 5 5 4 5 7 7 4 3 3 3 3 3 3 3 2 2 2 2 2 2 2 2 2 2
2 2 2 3 2 2 2 2 2 2 2 3 3 2 2 2 3 3 3 4 4 4 4 3 4 4 3 3 3 3 3 3 3 3 2 2 2 2 2 2 2 2 2 2
2 2 2 2 2 2 2 2 2 3 2 3 3 3 2 2 3 3 3 3 3 3 3 3 3 3 3 3 3 3 3 2 2 2 2 2 2 2 2 2 2 2 2 2
Wind_Direction
243 244 210 206 212 215 220 223 228 234 239 246 250 246 260 283 292 319 326 330 324 325 326 325 324 322 319 314 311 306 288 268 261 260 256 252 248 245 241 237 236 234 230 228
245 246 240 235 221 220 224 227 234 244 251 249 248 249 266 277 279 284 304 317 326 334 333 331 330 326 323 319 316 312 295 277 274 272 265 258 253 249 247 244 241 235 232 229
228 224 238 239 223 221 223 224 225 236 243 249 254 250 252 263 273 296 325 333 330 328 327 324 318 314 311 309 313 309 299 288 280 275 270 265 263 257 251 247 243 239 237 232
204 196 229 232 213 219 227 232 231 235 237 239 246 252 223 141 129 316 325 323 320 324 323 321 320 317 312 309 308 303 296 291 288 283 275 271 264 256 254 251 246 245 242 237
197 225 246 247 213 206 216 231 229 235 238 245 251 254 221 172 77 327 330 326 322 321 317 318 320 322 320 315 313 307 302 300 296 287 280 274 265 261 259 257 254 249 245 238
203 216 226 225 202 192 193 239 226 224 229 233 221 228 232 23 12 358 353 343 332 328 320 319 325 331 322 313 311 305 303 299 296 290 279 272 268 266 264 256 255 252 249 241
216 225 242 225 193 150 192 227 202 194 200 204 221 234 310 6 3 359 348 344 343 335 327 325 331 329 313 308 303 305 307 303 300 294 285 277 275 271 266 262 258 253 253 253
200 217 233 191 171 188 193 92 99 98 81 78 305 335 350 350 345 344 343 346 346 334 324 325 332 326 310 305 307 311 308 305 303 301 298 291 284 280 270 257 256 256 255 259
195 212 185 143 155 132 107 125 112 92 51 49 4 343 340 337 337 339 342 337 335 325 316 319 326 323 309 310 316 315 311 306 304 303 298 291 283 281 277 259 252 256 250 255
194 220 166 117 91 65 70 92 83 78 62 37 332 321 325 328 331 334 335 331 328 321 316 316 322 318 307 312 317 315 311 309 307 305 302 295 283 275 271 265 257 254 250 250
227 210 124 192 129 98 65 62 57 41 35 12 329 318 320 317 321 324 325 326 323 317 311 310 316 314 315 320 320 315 309 308 308 304 299 297 288 278 270 266 254 251 253 246
217 196 190 198 149 118 111 65 28 6 344 349 343 317 318 312 318 321 320 323 319 314 312 312 316 317 322 326 323 315 311 311 309 306 303 298 295 298 284 266 271 257 256 253
217 23 93 126 107 95 154 97 348 311 287 302 323 326 313 306 312 314 312 313 309 307 307 310 315 317 323 326 322 312 302 304 303 300 298 296 292 290 299 305 272 259 259 259
32 96 167 196 210 10 77 44 27 354 329 317 318 318 308 298 300 302 304 306 305 304 306 309 312 314 322 325 320 312 307 303 300 296 294 292 289 287 284 290 301 305 284 264
3 357 184 118 67 23 23 33 353 302 300 299 307 304 298 294 294 297 303 309 309 307 308 314 315 316 327 329 324 317 312 309 307 308 305 298 295 292 288 285 286 298 316 326
26 40 104 169 226 292 323 306 275 281 288 290 295 294 293 289 289 291 299 310 312 310 314 316 313 317 327 327 322 316 312 314 315 313 314 315 313 309 306 303 302 303 312 323
169 217 230 244 257 274 273 270 272 280 285 286 291 300 304 301 298 300 307 309 296 296 305 310 311 318 324 324 320 314 313 315 320 319 319 320 321 321 319 314 315 319 332 355
272 262 252 244 257 272 281 285 286 285 282 287 300 302 298 297 294 299 308 315 312 307 309 311 314 324 326 324 319 314 313 314 319 320 321 326 328 328 331 333 337 339 342 0
273 268 279 274 270 265 268 275 282 290 291 285 283 283 282 280 280 288 301 311 312 310 315 323 327 333 326 323 325 317 318 319 322 325 326 329 332 335 342 346 346 349 353 2
243 257 260 272 282 254 262 275 281 288 289 280 277 285 289 288 285 288 291 282 277 282 303 316 320 320 320 322 329 322 324 323 324 328 332 335 339 341 346 350 352 355 359 5
241 247 250 254 270 269 260 268 271 279 290 277 259 268 278 286 289 284 286 289 296 307 310 313 315 317 320 323 323 323 326 328 330 333 334 336 339 344 348 353 357 359 2 9
227 232 242 249 257 276 279 269 266 277 288 289 274 268 276 286 288 276 252 259 291 313 312 307 310 320 329 328 322 326 329 332 334 337 340 341 343 345 349 352 356 2 9 12
230 233 238 243 249 265 284 279 265 266 275 281 285 281 271 272 276 277 284 291 304 312 312 306 318 328 333 331 327 329 333 337 339 340 340 343 343 342 346 352 358 2 6 9
231 235 237 239 236 256 276 278 263 256 260 265 264 268 272 281 285 268 268 295 307 310 308 310 321 331 337 332 329 330 332 333 334 335 337 338 341 348 353 353 352 353 356 2
230 232 229 226 235 247 258 272 277 273 269 269 271 267 259 255 263 287 299 300 306 311 308 314 323 327 329 322 324 324 324 324 325 327 331 335 341 344 344 343 341 342 345 351
231 232 232 232 237 252 261 262 266 280 287 289 290 288 282 276 275 283 289 293 298 301 302 306 312 315 313 313 314 314 313 317 322 324 323 323 324 326 326 330 334 333 332 332
239 237 239 248 247 242 247 251 258 269 274 278 285 291 295 294 291 292 293 295 299 299 298 300 302 302 302 304 304 305 305 307 308 309 311 311 310 311 313 316 316 315 313 311